Вернуться в каталог

STARLINK-36317

АктивенСвязьSSO
NORAD 67736·PAYLOAD·🇺🇸 United States

Запущен Feb 11, 2026 с Vandenberg Space Force Base

Loading…

Ближайшие Пролёты (ближайшие 24 часа)

TLE

СвежийSource: CelesTrak SupGP

Эпоха: Sep 14, 2026, 22:43 UTC

1 67736C 26026R   26257.94701389  .00009152  00000+0  28411-3 0  2570
2 67736  97.2849 309.8753 0001165  86.8992 164.3959 15.33431440    16

Отслеживайте STARLINK-36317 в реальном времени с AllMySat

Download on the App Store